Weather History for TNCB - February, 2013

Change the Weather History Date:

Wednesday, February 13, 2013

  Actual Average Record
Temperature  
Mean Temperature 80 °F -  
Max Temperature 85 °F 84 °F 87 °F (2003)
Min Temperature 76 °F 77 °F 73 °F (2012)
Cooling Degree Days 16    
Growing Degree Days 30 (Base 50)    
Moisture  
Dew Point 69 °F    
Average Humidity 68    
Maximum Humidity 78    
Minimum Humidity 52    
Precipitation  
Precipitation 0.01 in - - ()
Sea Level Pressure  
Sea Level Pressure 29.96 in    
Wind  
Wind Speed 13 mph ()    
Max Wind Speed 23 mph    
Max Gust Speed -    
Visibility 6.1 miles    
Events      
Averages and records for this station are not official NWS values.
T = Trace of Precipitation, MM = Missing Value Source: Averaged Metar Reports

Daily Weather History Graph

Daily Weather History Graph

Search for Another Location

Airport or City:

Trip Planner

Search our weather history database for the weather conditions in past years. The results will help you decide how hot, cold, wet, or windy it might be!

Date:

Astronomy

Feb. 13, 2013 Rise Set
Actual Time 6:55 AM AST 6:39 PM AST
Civil Twilight 6:33 AM AST 7:01 PM AST
Nautical Twilight 6:08 AM AST 7:26 PM AST
Astronomical Twilight 5:43 AM AST 7:51 PM AST
Moon 9:10 AM AST (2/13) 9:45 PM AST (2/13)
Length of Visible Light 12h 27m
Length of Day
11h 43m
Waxing Crescent, 13% of the Moon is Illuminated
Feb 13
Waxing Crescent
Feb 17
First Quarter
Feb 25
Full
Mar 4
Last Quarter
Mar 11
New

Hourly Weather History & Observations

Time (AST) Temp. Heat Index Dew Point Humidity Pressure Visibility Wind Dir Wind Speed Gust Speed Precip Events Conditions
12:00 AM 78.8 °F - 69.8 °F 74% 29.98 in - East 12.7 mph - N/A   Unknown
1:00 AM 77.0 °F - 68.0 °F 74% 29.98 in - East 11.5 mph - N/A   Unknown
2:00 AM 78 °F - 69 °F 66%  in - East 13.8 mph - -   Clear
2:00 AM 77.0 °F - 68.0 °F 74% 29.95 in - East 13.8 mph - N/A   Unknown
3:00 AM 77.0 °F - 69.8 °F 78% 29.95 in - East 10.4 mph - N/A   Unknown
4:00 AM 77.0 °F - 68.0 °F 74% 29.95 in - East 11.5 mph - N/A   Unknown
5:00 AM 77 °F - 68 °F 68%  in - East 11.5 mph - -  
5:00 AM 77.0 °F - 68.0 °F 74% 29.95 in - East 11.5 mph - N/A   Unknown
6:00 AM 77.0 °F - 69.8 °F 78% 29.95 in - East 9.2 mph - N/A   Unknown
7:00 AM 78.8 °F - 69.8 °F 74% 29.95 in - East 12.7 mph - N/A   Unknown
8:00 AM 80 °F - 71 °F 67%  in - East 12.7 mph - -  
8:00 AM 80.6 °F 84.6 °F 71.6 °F 74% 29.98 in - East 12.7 mph - N/A   Unknown
10:00 AM 82.4 °F 86.3 °F 69.8 °F 66% 30.01 in 6.2 mi East 17.3 mph - N/A   Scattered Clouds
11:00 AM 84.2 °F 87.3 °F 68.0 °F 58% 30.01 in 6.2 mi East 17.3 mph - N/A   Scattered Clouds
1:00 PM 84.2 °F 87.3 °F 68.0 °F 58% 29.98 in 6.2 mi East 17.3 mph - N/A   Scattered Clouds
2:00 PM 85 °F - 70 °F 52% 29.98 in 22 mi ESE 17.3 mph - -  
2:00 PM 86.0 °F 90.4 °F 69.8 °F 58% 29.95 in - ESE 17.3 mph - N/A   Unknown
3:00 PM 84.2 °F 87.3 °F 68.0 °F 58% 29.95 in 6.2 mi East 23.0 mph - N/A   Scattered Clouds
4:00 PM 84.2 °F 88.4 °F 69.8 °F 62% 29.92 in 6.2 mi East 19.6 mph - N/A   Scattered Clouds
5:00 PM 82 °F - 71 °F 61%  in 6 mi East 17.3 mph - -   Clear
5:00 PM 82.4 °F 86.3 °F 69.8 °F 66% 29.92 in 6.2 mi East 18.4 mph - N/A   Scattered Clouds
6:00 PM 82.4 °F 85.4 °F 68.0 °F 62% 29.92 in 6.2 mi East 18.4 mph - N/A   Partly Cloudy
7:00 PM 78.8 °F - 68.0 °F 69% 29.92 in - East 13.8 mph - N/A   Unknown
8:00 PM 79 °F - 69 °F 65%  in 6 mi East 13.8 mph - -   Clear
8:00 PM 78.8 °F - 69.8 °F 74% 29.95 in - East 13.8 mph - N/A   Unknown
9:00 PM 78.8 °F - 69.8 °F 74% 29.95 in - East 15.0 mph - N/A   Unknown
10:00 PM 78.8 °F - 69.8 °F 74% 29.98 in - East 15.0 mph - N/A   Unknown
11:00 PM 78 °F - 69 °F 67%  in 6 mi East 16.1 mph - -   Clear
11:00 PM 78.8 °F - 69.8 °F 74% 29.98 in 6.2 mi East 16.1 mph - N/A   Partly Cloudy